Mineralnyye Vody Airport

Jump to: basic info | weather | frequencies | runways | comments

Related pages: nearby airports | nearby navaids | notams | map

Basic information (top)

Codes: MRV URMM
Location: lon 44.225101, lat 43.081902, elev 1,054 ft / 321 m msl
Status: medium_airport
Scheduled airline service: yes
Links: Wikipedia Mobile

Weather (top)

Current conditions (rec'd 2014/11/27 05:00Z):

URMM 270500Z 10004MPS 5000 -SN BKN004 OVC026 M01/M02 Q1021 R12/790132 NOSIG RMK MT OBSC QFE737/0983

Airport forecast (rec'd 2014/11/27 03:00Z):

TAF URMM 270156Z 2703/2803 09005G10MPS 3000 -SG BR OVC004 620040 530001 
      TEMPO 2703/2709 09003G08MPS 0300 FZDZ FZFG OVC002 640000 
      BECMG 2709/2710 OVC007 
      TEMPO 2709/2803 1200 OVC004

Frequencies (top)

Verify before use: may be inaccurate or out of date.

APP: 119.3 MHz (APP)
ATIS: 127.4 MHz (ATIS)
GND: 121.9 MHz (TAXIING)
RDR: 120.7 MHz (KRUG)
TWR: 128 MHz (START)

Runways (top)

12/30: 12,795 x 197 ft (3,900 x 60 m) — paved — lighted

Latest comments (top)

No comments yet for Mineralnyye Vody Airport

More... (top)

See also NOTAMs and nearby airports and navaids, or visit the Mineralnyye Vody Airport page at the main OurAirports website..